GFA175 OEJN-OBBI

Flight info

Callsign GFA175
Flight time 1h 31m
Altitude 35000
Route EGREP2W/34C EGREP B417 PATOR T532 DAW DCT TASBA J852 KAVUR DCT KINIB N687 MIBRA J749 KFA H732 LADNA
Aircraft A320/M-SDE3FGHIRWY/LB1

Departure

Time 2026-04-28 23:03
Airport King Abdulaziz International Airport (OEJN)

Arrival

Time 2026-04-29 00:34
Airport Bahrain International Airport (OBBI)
Time Latitude Longitude Altitude Speed Heading
2026-04-28 22:16 21.66444 39.17136 45 ft 0 kts 89°
2026-04-28 22:53 21.66444 39.17123 44 ft 2 kts 89°
2026-04-28 22:53 21.66444 39.17106 44 ft 2 kts 89°
2026-04-28 22:54 21.66443 39.17088 44 ft 2 kts 89°
2026-04-28 22:54 21.66443 39.17070 43 ft 2 kts 89°
2026-04-28 22:54 21.66443 39.17052 43 ft 2 kts 89°
2026-04-28 22:54 21.66443 39.17035 43 ft 2 kts 114°
2026-04-28 22:55 21.66452 39.17020 42 ft 2 kts 148°
2026-04-28 22:55 21.66467 39.17012 42 ft 2 kts 164°
2026-04-28 22:55 21.66471 39.17011 41 ft 0 kts 168°
2026-04-28 22:59 21.66425 39.17021 41 ft 9 kts 169°
2026-04-28 22:59 21.66367 39.17018 42 ft 8 kts 190°
2026-04-28 22:59 21.66320 39.16991 40 ft 8 kts 226°
2026-04-28 22:59 21.66290 39.16940 40 ft 8 kts 242°
2026-04-28 23:00 21.66268 39.16884 39 ft 8 kts 249°
2026-04-28 23:00 21.66249 39.16827 38 ft 8 kts 252°
2026-04-28 23:00 21.66233 39.16773 36 ft 8 kts 252°
2026-04-28 23:00 21.66222 39.16738 35 ft 0 kts 251°
2026-04-28 23:01 21.66221 39.16737 36 ft 2 kts 251°
2026-04-28 23:01 21.66193 39.16654 34 ft 16 kts 250°
2026-04-28 23:01 21.66153 39.16535 35 ft 18 kts 250°
2026-04-28 23:01 21.66163 39.16471 34 ft 6 kts 326°
2026-04-28 23:02 21.66216 39.16448 35 ft 10 kts 339°
2026-04-28 23:02 21.66369 39.16389 36 ft 54 kts 340°
2026-04-28 23:02 21.66948 39.16163 36 ft 119 kts 340°
2026-04-28 23:02 21.67881 39.15798 82 ft 164 kts 340°
2026-04-28 23:03 21.68929 39.15384 752 ft 158 kts 341°
2026-04-28 23:03 21.70019 39.14957 1212 ft 176 kts 340°
2026-04-28 23:03 21.71247 39.14476 1503 ft 198 kts 340°
2026-04-28 23:03 21.72595 39.13946 1829 ft 219 kts 340°
2026-04-28 23:04 21.74103 39.13352 2288 ft 240 kts 340°
2026-04-28 23:04 21.77327 39.12080 3867 ft 255 kts 338°
2026-04-28 23:04 21.79026 39.11406 4637 ft 264 kts 337°
2026-04-28 23:05 21.80820 39.10825 5385 ft 275 kts 351°
2026-04-28 23:05 21.82756 39.11018 6138 ft 287 kts 18°
2026-04-28 23:05 21.84466 39.12182 6880 ft 296 kts 44°
2026-04-28 23:05 21.85893 39.13801 7705 ft 300 kts 46°
2026-04-28 23:06 21.87308 39.15431 8525 ft 304 kts 46°
2026-04-28 23:06 21.88765 39.17113 9350 ft 308 kts 46°
2026-04-28 23:06 21.90246 39.18819 10129 ft 313 kts 46°
2026-04-28 23:06 21.91800 39.20602 10440 ft 337 kts 46°
2026-04-28 23:07 21.93435 39.22471 10821 ft 354 kts 46°
2026-04-28 23:07 21.95149 39.24430 11475 ft 361 kts 46°
2026-04-28 23:07 21.96888 39.26414 12183 ft 366 kts 46°
2026-04-28 23:07 21.98631 39.28403 12868 ft 371 kts 46°
2026-04-28 23:08 22.00414 39.30441 13564 ft 376 kts 46°
2026-04-28 23:08 22.02221 39.32513 14166 ft 380 kts 46°
2026-04-28 23:08 22.04040 39.34603 14775 ft 384 kts 46°
2026-04-28 23:08 22.05861 39.36694 15367 ft 388 kts 46°
2026-04-28 23:09 22.07720 39.38827 15983 ft 392 kts 46°
2026-04-28 23:09 22.09598 39.40980 16599 ft 396 kts 46°
2026-04-28 23:09 22.11494 39.43155 17202 ft 400 kts 46°
2026-04-28 23:09 22.13416 39.45360 17804 ft 404 kts 46°
2026-04-28 23:10 22.15336 39.47566 18381 ft 409 kts 46°
2026-04-28 23:10 22.17293 39.49818 18874 ft 413 kts 46°
2026-04-28 23:10 22.19273 39.52095 19372 ft 418 kts 45°
2026-04-28 23:10 22.21256 39.54373 19856 ft 422 kts 45°
2026-04-28 23:11 22.23282 39.56706 20333 ft 427 kts 45°
2026-04-28 23:11 22.25333 39.59066 20801 ft 432 kts 45°
2026-04-28 23:11 22.27401 39.61450 21258 ft 436 kts 45°
2026-04-28 23:11 22.29485 39.63852 21707 ft 441 kts 45°
2026-04-28 23:12 22.31568 39.66254 22142 ft 445 kts 45°
2026-04-28 23:12 22.33697 39.68710 22570 ft 450 kts 45°
2026-04-28 23:12 22.35851 39.71194 23022 ft 454 kts 45°
2026-04-28 23:12 22.38022 39.73699 23454 ft 458 kts 45°
2026-04-28 23:13 22.40217 39.76235 23819 ft 462 kts 45°
2026-04-28 23:13 22.42393 39.78749 24210 ft 465 kts 44°
2026-04-28 23:13 22.44611 39.81313 24581 ft 467 kts 44°
2026-04-28 23:13 22.46874 39.83854 24937 ft 468 kts 39°
2026-04-28 23:14 22.49317 39.86204 25285 ft 470 kts 38°
2026-04-28 23:14 22.51741 39.88514 25634 ft 471 kts 38°
2026-04-28 23:14 22.54207 39.90862 26008 ft 474 kts 37°
2026-04-28 23:14 22.56700 39.93235 26373 ft 476 kts 37°
2026-04-28 23:15 22.59200 39.95615 26708 ft 479 kts 37°
2026-04-28 23:15 22.61710 39.98011 27057 ft 481 kts 37°
2026-04-28 23:15 22.64196 40.00389 27405 ft 483 kts 37°
2026-04-28 23:15 22.66728 40.02814 27738 ft 486 kts 37°
2026-04-28 23:16 22.69268 40.05248 28063 ft 488 kts 37°
2026-04-28 23:16 22.71823 40.07698 28377 ft 490 kts 36°
2026-04-28 23:16 22.74353 40.10124 28680 ft 493 kts 36°
2026-04-28 23:16 22.76931 40.12597 28983 ft 495 kts 36°
2026-04-28 23:17 22.79514 40.15073 29285 ft 497 kts 36°
2026-04-28 23:17 22.82116 40.17563 29578 ft 499 kts 36°
2026-04-28 23:17 22.84742 40.20079 29851 ft 502 kts 36°
2026-04-28 23:17 22.86476 40.21742 30027 ft 504 kts 36°
2026-04-28 23:18 22.89979 40.25106 30319 ft 507 kts 36°
2026-04-28 23:18 22.92628 40.27656 30522 ft 509 kts 36°
2026-04-28 23:18 22.94387 40.29350 30660 ft 511 kts 36°
2026-04-28 23:18 22.97056 40.31926 30862 ft 513 kts 36°
2026-04-28 23:19 22.99725 40.34500 31065 ft 515 kts 36°
2026-04-28 23:19 23.02415 40.37094 31269 ft 517 kts 36°
2026-04-28 23:19 23.05991 40.40542 31547 ft 520 kts 36°
2026-04-28 23:19 23.07789 40.42274 31709 ft 520 kts 37°
2026-04-28 23:20 23.10498 40.44889 32029 ft 519 kts 37°
2026-04-28 23:20 23.13199 40.47493 32346 ft 519 kts 37°
2026-04-28 23:20 23.15895 40.50097 32659 ft 518 kts 37°
2026-04-28 23:20 23.18593 40.52707 32966 ft 518 kts 37°
2026-04-28 23:21 23.21249 40.55277 33262 ft 518 kts 37°
2026-04-28 23:21 23.23943 40.57912 33586 ft 520 kts 40°
2026-04-28 23:21 23.26373 40.60847 33908 ft 524 kts 50°
2026-04-28 23:21 23.28387 40.64173 34215 ft 527 kts 59°
2026-04-28 23:22 23.29932 40.67802 34495 ft 528 kts 69°
2026-04-28 23:22 23.31214 40.71494 34784 ft 527 kts 69°
2026-04-28 23:22 23.32511 40.75227 34967 ft 527 kts 69°
2026-04-28 23:22 23.33804 40.78947 35015 ft 521 kts 69°
2026-04-28 23:23 23.36333 40.86236 35015 ft 516 kts 69°
2026-04-28 23:23 23.38868 40.93575 35014 ft 515 kts 69°
2026-04-28 23:24 23.41390 41.00847 35015 ft 515 kts 69°
2026-04-28 23:24 23.43925 41.08177 35015 ft 515 kts 69°
2026-04-28 23:25 23.46425 41.15456 35013 ft 516 kts 69°
2026-04-28 23:25 23.48944 41.22790 35009 ft 516 kts 69°
2026-04-28 23:26 23.51445 41.30080 35010 ft 516 kts 69°
2026-04-28 23:26 23.53966 41.37430 35008 ft 516 kts 69°
2026-04-28 23:27 23.56480 41.44763 35009 ft 516 kts 69°
2026-04-28 23:27 23.58989 41.52086 35007 ft 516 kts 69°
2026-04-28 23:28 23.61477 41.59381 35007 ft 516 kts 69°
2026-04-28 23:28 23.63984 41.66731 35008 ft 516 kts 69°
2026-04-28 23:29 23.66467 41.74039 35008 ft 515 kts 69°
2026-04-28 23:29 23.68907 41.81384 35004 ft 515 kts 70°
2026-04-28 23:30 23.71245 41.88804 34995 ft 516 kts 71°
2026-04-28 23:30 23.73540 41.96181 34997 ft 516 kts 70°
2026-04-28 23:31 23.75917 42.03577 34997 ft 516 kts 69°
2026-04-28 23:31 23.78462 42.10923 34995 ft 516 kts 68°
2026-04-28 23:32 23.81016 42.18217 34999 ft 516 kts 68°
2026-04-28 23:32 23.83535 42.25541 34999 ft 516 kts 69°
2026-04-28 23:33 23.86032 42.32903 35006 ft 516 kts 69°
2026-04-28 23:33 23.88509 42.40248 35005 ft 516 kts 69°
2026-04-28 23:34 23.91010 42.47632 34993 ft 517 kts 69°
2026-04-28 23:34 23.93502 42.54979 34995 ft 518 kts 69°
2026-04-28 23:35 23.96004 42.62384 34993 ft 518 kts 69°
2026-04-28 23:35 23.98497 42.69792 34987 ft 518 kts 69°
2026-04-28 23:36 24.00973 42.77161 34996 ft 519 kts 69°
2026-04-28 23:36 24.03463 42.84579 34999 ft 519 kts 69°
2026-04-28 23:37 24.05932 42.91958 35002 ft 519 kts 69°
2026-04-28 23:37 24.08389 42.99403 35006 ft 519 kts 69°
2026-04-28 23:38 24.10812 43.06798 35004 ft 519 kts 70°
2026-04-28 23:38 24.13248 43.14238 34997 ft 519 kts 69°
2026-04-28 23:39 24.15696 43.21698 34991 ft 519 kts 69°
2026-04-28 23:39 24.18126 43.29119 34987 ft 519 kts 69°
2026-04-28 23:40 24.20554 43.36571 34990 ft 519 kts 69°
2026-04-28 23:40 24.22970 43.43987 34990 ft 519 kts 69°
2026-04-28 23:41 24.25384 43.51404 34985 ft 518 kts 69°
2026-04-28 23:41 24.27806 43.58863 34985 ft 518 kts 70°
2026-04-28 23:42 24.30203 43.66278 34988 ft 518 kts 69°
2026-04-28 23:42 24.32616 43.73732 34982 ft 518 kts 69°
2026-04-28 23:43 24.35013 43.81157 34977 ft 518 kts 69°
2026-04-28 23:43 24.37422 43.88621 34970 ft 518 kts 69°
2026-04-28 23:44 24.39810 43.96038 34960 ft 518 kts 70°
2026-04-28 23:44 24.42193 44.03487 34950 ft 517 kts 70°
2026-04-28 23:45 24.44563 44.10956 34946 ft 517 kts 72°
2026-04-28 23:45 24.46089 44.18674 34943 ft 517 kts 79°
2026-04-28 23:46 24.47432 44.26395 34948 ft 518 kts 79°
2026-04-28 23:46 24.48772 44.34172 34947 ft 518 kts 79°
2026-04-28 23:47 24.50120 44.41947 34952 ft 518 kts 79°
2026-04-28 23:47 24.51461 44.49736 34961 ft 518 kts 79°
2026-04-28 23:48 24.52786 44.57479 34955 ft 519 kts 79°
2026-04-28 23:48 24.54125 44.65282 34958 ft 519 kts 79°
2026-04-28 23:49 24.55458 44.73031 34953 ft 519 kts 79°
2026-04-28 23:49 24.56793 44.80836 34957 ft 519 kts 79°
2026-04-28 23:50 24.58120 44.88638 34951 ft 519 kts 79°
2026-04-28 23:50 24.59429 44.96405 34944 ft 520 kts 79°
2026-04-28 23:51 24.60742 45.04223 34948 ft 520 kts 79°
2026-04-28 23:51 24.62058 45.12054 34951 ft 520 kts 79°
2026-04-28 23:52 24.63369 45.19833 34951 ft 520 kts 79°
2026-04-28 23:52 24.64677 45.27680 34950 ft 521 kts 79°
2026-04-28 23:53 24.65969 45.35477 34943 ft 521 kts 79°
2026-04-28 23:53 24.67274 45.43337 34942 ft 522 kts 79°
2026-04-28 23:54 24.68574 45.51186 34941 ft 522 kts 79°
2026-04-28 23:54 24.69862 45.59009 34947 ft 522 kts 79°
2026-04-28 23:55 24.71220 45.66853 34941 ft 521 kts 74°
2026-04-28 23:55 24.73739 45.74319 34947 ft 519 kts 66°
2026-04-28 23:56 24.76460 45.81646 34953 ft 520 kts 66°
2026-04-28 23:56 24.79181 45.89023 34953 ft 520 kts 66°
2026-04-28 23:57 24.81881 45.96370 34949 ft 520 kts 66°
2026-04-28 23:57 24.84599 46.03747 34955 ft 520 kts 66°
2026-04-28 23:58 24.87312 46.11134 34955 ft 520 kts 66°
2026-04-28 23:58 24.90003 46.18488 34952 ft 520 kts 66°
2026-04-28 23:59 24.92711 46.25883 34951 ft 519 kts 66°
2026-04-28 23:59 24.95401 46.33231 34950 ft 519 kts 66°
2026-04-29 00:00 24.98099 46.40638 34942 ft 519 kts 66°
2026-04-29 00:00 25.00798 46.48047 34929 ft 520 kts 66°
2026-04-29 00:01 25.03474 46.55404 34922 ft 520 kts 66°
2026-04-29 00:01 25.06163 46.62812 34916 ft 520 kts 66°
2026-04-29 00:02 25.08844 46.70224 34913 ft 520 kts 66°
2026-04-29 00:02 25.11511 46.77596 34923 ft 520 kts 66°
2026-04-29 00:03 25.14194 46.85032 34921 ft 520 kts 66°
2026-04-29 00:03 25.16851 46.92437 34918 ft 520 kts 66°
2026-04-29 00:04 25.19528 46.99886 34921 ft 521 kts 66°
2026-04-29 00:04 25.22192 47.07298 34917 ft 521 kts 66°
2026-04-29 00:05 25.24864 47.14752 34918 ft 521 kts 66°
2026-04-29 00:05 25.27507 47.22150 34915 ft 521 kts 66°
2026-04-29 00:06 25.30163 47.29603 34911 ft 521 kts 66°
2026-04-29 00:06 25.32827 47.37081 34908 ft 521 kts 66°
2026-04-29 00:07 25.35483 47.44546 34908 ft 521 kts 66°
2026-04-29 00:07 25.38110 47.51955 34910 ft 521 kts 66°
2026-04-29 00:08 25.40787 47.59478 34909 ft 529 kts 66°
2026-04-29 00:08 25.43482 47.67088 34907 ft 537 kts 67°
2026-04-29 00:09 25.46185 47.74796 34904 ft 538 kts 67°
2026-04-29 00:09 25.48900 47.82535 34900 ft 538 kts 67°
2026-04-29 00:10 25.51603 47.90221 34897 ft 538 kts 67°
2026-04-29 00:10 25.54321 47.97947 34894 ft 538 kts 67°
2026-04-29 00:11 25.57037 48.05686 34893 ft 538 kts 67°
2026-04-29 00:12 25.61071 48.17250 34891 ft 539 kts 67°
2026-04-29 00:12 25.63764 48.25002 34888 ft 539 kts 67°
2026-04-29 00:13 25.66457 48.32768 34888 ft 539 kts 67°
2026-04-29 00:13 25.69439 48.40322 34880 ft 535 kts 56°
2026-04-29 00:14 25.73415 48.47277 34876 ft 534 kts 53°
2026-04-29 00:14 25.77388 48.54187 34877 ft 534 kts 54°
2026-04-29 00:15 25.80697 48.59984 34870 ft 534 kts 54°
2026-04-29 00:15 25.84678 48.66967 34869 ft 534 kts 54°
2026-04-29 00:16 25.88658 48.73951 34868 ft 534 kts 54°
2026-04-29 00:16 25.92608 48.80883 34862 ft 534 kts 54°
2026-04-29 00:17 25.96602 48.87874 34859 ft 534 kts 53°
2026-04-29 00:17 26.00671 48.94731 34853 ft 534 kts 52°
2026-04-29 00:18 26.04815 49.01589 34853 ft 534 kts 52°
2026-04-29 00:18 26.08943 49.08472 34850 ft 534 kts 53°
2026-04-29 00:19 26.13010 49.15354 34848 ft 535 kts 53°
2026-04-29 00:19 26.17088 49.22276 34845 ft 535 kts 53°
2026-04-29 00:20 26.21177 49.29224 34839 ft 535 kts 53°
2026-04-29 00:20 26.25251 49.36158 34834 ft 535 kts 53°
2026-04-29 00:20 26.27268 49.39580 34483 ft 532 kts 53°
2026-04-29 00:21 26.29279 49.42990 33973 ft 521 kts 52°
2026-04-29 00:21 26.31260 49.46342 33205 ft 513 kts 52°
2026-04-29 00:21 26.33219 49.49656 32410 ft 506 kts 53°
2026-04-29 00:21 26.35152 49.52933 31340 ft 507 kts 53°
2026-04-29 00:22 26.37087 49.56220 30407 ft 505 kts 54°
2026-04-29 00:22 26.38982 49.59449 29522 ft 500 kts 54°
2026-04-29 00:22 26.40876 49.62683 28611 ft 494 kts 54°
2026-04-29 00:22 26.42743 49.65877 27762 ft 486 kts 55°
2026-04-29 00:23 26.44579 49.69021 26944 ft 478 kts 55°
2026-04-29 00:23 26.46362 49.72074 26168 ft 471 kts 55°
2026-04-29 00:23 26.47966 49.75227 25382 ft 463 kts 68°
2026-04-29 00:23 26.48912 49.78647 24165 ft 463 kts 84°
2026-04-29 00:24 26.49022 49.82227 22752 ft 460 kts 101°
2026-04-29 00:24 26.48401 49.85681 21136 ft 460 kts 108°
2026-04-29 00:24 26.47648 49.89179 19437 ft 467 kts 107°
2026-04-29 00:24 26.46888 49.92726 17870 ft 470 kts 105°
2026-04-29 00:25 26.46144 49.96248 16489 ft 462 kts 105°
2026-04-29 00:25 26.45424 49.99703 15234 ft 451 kts 105°
2026-04-29 00:25 26.44726 50.03082 14052 ft 440 kts 105°
2026-04-29 00:25 26.44042 50.06379 12776 ft 430 kts 105°
2026-04-29 00:26 26.43382 50.09545 11528 ft 420 kts 105°
2026-04-29 00:26 26.42723 50.12687 10293 ft 410 kts 105°
2026-04-29 00:26 26.42077 50.15758 9029 ft 401 kts 105°
2026-04-29 00:26 26.41522 50.18769 7733 ft 393 kts 96°
2026-04-29 00:27 26.41704 50.21767 6534 ft 385 kts 77°
2026-04-29 00:27 26.42423 50.24639 5639 ft 383 kts 79°
2026-04-29 00:27 26.42805 50.27538 5274 ft 381 kts 85°
2026-04-29 00:27 26.42757 50.30469 4814 ft 371 kts 94°
2026-04-29 00:28 26.42567 50.33303 3766 ft 363 kts 95°
2026-04-29 00:28 26.42149 50.36082 3312 ft 363 kts 106°
2026-04-29 00:28 26.41259 50.38597 3122 ft 335 kts 117°
2026-04-29 00:28 26.40116 50.40700 3009 ft 299 kts 122°
2026-04-29 00:29 26.39057 50.42545 3008 ft 265 kts 122°
2026-04-29 00:29 26.38118 50.44187 3011 ft 237 kts 122°
2026-04-29 00:29 26.37277 50.45652 3008 ft 218 kts 122°
2026-04-29 00:29 26.36466 50.47064 2911 ft 211 kts 122°
2026-04-29 00:30 26.35697 50.48403 2684 ft 200 kts 122°
2026-04-29 00:30 26.34960 50.49683 2445 ft 191 kts 122°
2026-04-29 00:30 26.34264 50.50894 2213 ft 179 kts 122°
2026-04-29 00:30 26.33630 50.51995 2001 ft 162 kts 121°
2026-04-29 00:31 26.33055 50.52994 1796 ft 146 kts 121°
2026-04-29 00:31 26.32519 50.53925 1621 ft 140 kts 121°
2026-04-29 00:31 26.31997 50.54834 1440 ft 138 kts 120°
2026-04-29 00:31 26.31488 50.55717 1272 ft 137 kts 121°
2026-04-29 00:32 26.30975 50.56609 1094 ft 137 kts 122°
2026-04-29 00:32 26.30463 50.57498 924 ft 136 kts 122°
2026-04-29 00:32 26.29948 50.58392 764 ft 137 kts 122°
2026-04-29 00:32 26.29429 50.59293 598 ft 139 kts 122°
2026-04-29 00:33 26.28905 50.60203 419 ft 140 kts 121°
2026-04-29 00:33 26.28378 50.61119 250 ft 140 kts 121°
2026-04-29 00:33 26.27848 50.62031 54 ft 140 kts 122°
2026-04-29 00:33 26.27358 50.62888 18 ft 117 kts 122°
2026-04-29 00:34 26.27014 50.63486 15 ft 68 kts 123°
2026-04-29 00:34 26.26848 50.63769 18 ft 19 kts 123°
2026-04-29 00:34 26.26782 50.63865 16 ft 14 kts 155°
2026-04-29 00:34 26.26700 50.63823 18 ft 13 kts 234°
2026-04-29 00:35 26.26681 50.63730 21 ft 13 kts 277°
2026-04-29 00:35 26.26717 50.63641 21 ft 13 kts 301°
2026-04-29 00:35 26.26729 50.63620 21 ft 0 kts 301°
2026-04-29 00:37 26.26731 50.63616 21 ft 5 kts 301°
2026-04-29 00:37 26.26922 50.63296 22 ft 100 kts 304°
2026-04-29 00:37 26.27457 50.62416 169 ft 161 kts 307°
2026-04-29 00:38 26.28083 50.61409 770 ft 156 kts 305°
2026-04-29 00:38 26.28726 50.60439 942 ft 154 kts 308°
2026-04-29 00:38 26.29120 50.59332 1111 ft 155 kts 309°
2026-04-29 00:38 26.30047 50.59029 1318 ft 147 kts 34°
2026-04-29 00:39 26.30996 50.59358 1379 ft 150 kts 350°
2026-04-29 00:39 26.31672 50.58580 1484 ft 150 kts 273°
2026-04-29 00:39 26.31248 50.57592 1456 ft 150 kts 202°
2026-04-29 00:39 26.30313 50.57738 1230 ft 143 kts 130°
2026-04-29 00:40 26.29715 50.58660 1048 ft 151 kts 119°
2026-04-29 00:40 26.29191 50.59704 779 ft 157 kts 122°
2026-04-29 00:40 26.28606 50.60738 538 ft 158 kts 122°
2026-04-29 00:40 26.28000 50.61784 194 ft 166 kts 123°
2026-04-29 00:41 26.27374 50.62856 28 ft 160 kts 122°
2026-04-29 00:41 26.26803 50.63846 9 ft 143 kts 122°
2026-04-29 00:41 26.26561 50.64270 4 ft 3 kts 122°
2026-04-29 00:41 26.26581 50.64331 16 ft 29 kts 43°
2026-04-29 00:42 26.26666 50.64370 18 ft 0 kts 347°
2026-04-29 00:42 26.26664 50.64340 17 ft 7 kts 257°
2026-04-29 00:43 26.26629 50.64218 15 ft 23 kts 255°
2026-04-29 00:43 26.26680 50.64075 17 ft 20 kts 291°
2026-04-29 00:43 26.26757 50.63946 16 ft 21 kts 302°
2026-04-29 00:43 26.26838 50.63792 17 ft 24 kts 300°
2026-04-29 00:44 26.26936 50.63619 16 ft 34 kts 301°
2026-04-29 00:44 26.27083 50.63357 15 ft 41 kts 302°
2026-04-29 00:44 26.27116 50.63299 15 ft 0 kts 303°
2026-04-29 00:45 26.27118 50.63296 15 ft 2 kts 302°
2026-04-29 00:45 26.27123 50.63295 15 ft 0 kts 348°
2026-04-29 00:45 26.27124 50.63294 15 ft 0 kts 350°
2026-04-29 00:47 26.27128 50.63291 15 ft 2 kts 327°
2026-04-29 00:48 26.27141 50.63269 15 ft 4 kts 304°
2026-04-29 00:48 26.27162 50.63238 16 ft 5 kts 304°
2026-04-29 00:48 26.27186 50.63198 16 ft 7 kts 304°
2026-04-29 00:48 26.27196 50.63143 16 ft 7 kts 297°
2026-04-29 00:49 26.27246 50.63069 18 ft 21 kts 300°
2026-04-29 00:49 26.27280 50.62994 17 ft 6 kts 307°
2026-04-29 00:49 26.27328 50.62864 18 ft 48 kts 285°
2026-04-29 00:49 26.27617 50.62213 57 ft 131 kts 310°
2026-04-29 00:50 26.28233 50.61345 415 ft 166 kts 300°
2026-04-29 00:50 26.29073 50.60349 830 ft 172 kts
2026-04-29 00:50 26.29481 50.61273 1564 ft 170 kts 132°
2026-04-29 00:50 26.28059 50.61895 477 ft 257 kts 149°
2026-04-29 00:51 26.26904 50.63322 48 ft 229 kts 122°
2026-04-29 00:51 26.26219 50.64524 19 ft 120 kts 123°
2026-04-29 00:51 26.26035 50.64832 21 ft 6 kts 170°
2026-04-29 00:51 26.26057 50.64785 21 ft 13 kts 307°
2026-04-29 00:52 26.26243 50.64454 20 ft 97 kts 302°
2026-04-29 00:52 26.26602 50.63741 28 ft 101 kts 298°
2026-04-29 00:52 26.26874 50.63143 23 ft 62 kts 315°
2026-04-29 00:52 26.26924 50.62962 21 ft 13 kts 212°
2026-04-29 00:53 26.26903 50.62947 22 ft 8 kts 213°
2026-04-29 00:53 26.26897 50.62943 21 ft 0 kts 213°